www.pogodaiklimat.ru

Погода и климат >> Архив погоды >> Франция >> Безье


ПОГОДА в Безье

  • Прогноз погоды в Безье
  • Монитор погоды в Безье

АРХИВ ПОГОДЫ в Безье

Время (UTC), дата Ветер
(напр.,м/с)
 
Видим.   Явления Облачность Т
(С)
Тd
(С)
f
(%)
Тe
(С)
Тes
(С)
Комфортность P
(гПа)
Po
(гПа)
Тmin
(С)
Tmax
(С)
R
(мм)
R24
(мм)
S
(см)
01 10.09 В 2 30 км слаб. дождь 10/10 1500 м
[]
+17.1 +12.0 72 +18 +18 1011.5 1009.6 0.0
02 10.09 С 1 55 км 10/10 2000 м
[]
+16.1 +13.8 86 +17 +17 1011.8 1009.9 0.0
03 10.09 С 2
{5}
60 км 10/0 2000 м
[]
+15.4 +12.0 80 +15 +15 1011.5 1009.6 0.0 0
04 10.09 СЗ 1-1
{3}
9000 м слаб. дождь 10/10 1500 м
[]
+15.5 +12.6 83 +17 +17 1012.7 1010.8 0.2
05 10.09 СЗ 2-3
{3}
35 км слаб. дождь 10/8 1020 м
[]
+15.4 +12.9 85 +15 +15 1012.9 1011.0 0.2
06 10.09 З 1
{6}
5000 м слаб. дождь 10/10 1000 м
[]
+14.7 +13.6 93 +15 +15 1014.0 1012.1 +14.7 +19.2 3 0
07 10.09 З 1 18 км слаб. морось 10/10 180 м
[]
+14.6 +13.8 95 +15 +15 1014.2 1012.3 0.6
08 10.09 С 1 6000 м слаб. дождь 10/8 180 м
[]
+14.6 +14.0 96 +15 +15 1014.5 1012.6 1
09 10.09 С 2
{5}
12 км слаб. дождь 10/10 100 м
[]
+14.9 +14.1 95 +15 +16 1014.9 1013.0 3 0
10 10.09 С 2 12 км слаб. дождь 10/10 1500 м
[]
+15.0 +13.9 93 +15 +15 1014.8 1012.9 0.4
11 10.09 С 2 45 км н/о +15.6 +13.6 88 +15 +15 1014.1 1012.2 0.0
12 10.09 С 3
{8}
55 км 10/10 300 м
[]
+15.8 +12.5 81 +15 +16 1013.6 1011.7 0.4 0
13 10.09 С 2-3
{3}
55 км 10/10 1200 м
[]
+16.4 +12.6 78 +16 +16 1013.8 1011.9
14 10.09 СЗ 2-3
{4}
14 км слаб. морось 10/10 1140 м
[]
+15.7 +13.9 89 +16 +16 1013.5 1011.6 0.2
15 10.09 З 3-4
{4}
50 км 10/10 1000 м
[]
+16.0 +14.5 91 +16 +16 1013.9 1012.0 0.2 0
16 10.09 СЗ 2-4
{5}
19 км слаб. дождь 10/10 1050 м
[]
+16.7 +13.2 80 +17 +17 1014.2 1012.3 0.0
17 10.09 С 3-5
{5}
6000 м морось 10/9 1230 м
[]
+16.0 +13.3 84 +16 +16 1015.0 1013.1 0.0
18 10.09 С 3
{9}
45 км 10/10 600 м
[]
+16.3 +13.2 82 +16 +16 1015.5 1013.6 +14.4 +16.8 0.2 0
19 10.09 С 2-2
{4}
60 км 10/1 1300 м
[]
+16.3 +13.2 82 +17 +17 1016.1 1014.2
20 10.09 З 1-1
{3}
4000 м дождь 10/6 1320 м
[]
+15.6 +14.0 90 +16 +16 1017.1 1015.2 1
21 10.09 С 3-4
{4}
4600 м слаб. дождь 10/10 1000 м
[]
+14.8 +13.5 92 +14 +14 1017.4 1015.5 3 0
22 10.09 С 4 60 км 10/8 1260 м
[]
+15.1 +13.5 90 +14 +14 1017.4 1015.5 0.2
23 10.09 СЗ 3 60 км 10/10 1500 м
[]
+15.3 +13.5 89 +15 +15 1017.5 1015.6
00 11.09 З 2-3
{3}
60 км 10/10 1500 м
[]
+15.6 +13.8 89 +15 +15 1018.1 1016.2 0.2 0
01 11.09 З 2 55 км 10/10 1500 м
[]
+15.3 +13.7 90 +15 +15 1018.1 1016.2
02 11.09 З 3-4
{5}
55 км 10/10 2000 м
[]
+14.8 +13.2 90 +14 +14 1018.6 1016.7
03 11.09 З 3-5
{5}
60 км 9/9 1500 м
[]
+14.6 +13.0 90 +14 +14 1018.7 1016.8 0.0 0
04 11.09 З 2 55 км 10/10 2000 м
[]
+14.8 +13.2 90 +14 +14 1019.2 1017.3 0.0
05 11.09 З 2 50 км 10/10 1500 м
[]
+14.8 +13.3 91 +14 +14 1019.8 1017.9 0.0
06 11.09 З 3
{9}
50 км 10/10 1500 м
[]
+15.0 +13.0 88 +14 +14 1020.6 1018.7 +14.5 +16.3 0.0 0
07 11.09 З 3-4
{4}
45 км 10/10
[]
+15.5 +13.3 87 +15 +15 1021.4 1019.5 0.0
08 11.09 З 3-4
{4}
60 км 10/10 2000 м
[]
+18.3 +14.6 79 +19 +19 1022.2 1020.3
09 11.09 З 3-4
{4}
35 км 10/0 2000 м
[]
+18.5 +14.0 75 +19 +19 1023.3 1021.4 0.0 0
10 11.09 З 3 60 км 10/10 2000 м
[]
+18.8 +13.4 71 +20 +20 1023.8 1021.9
11 11.09 З 4-5
{6}
60 км н/о +21.4 +13.8 62 +24 +24 комфорт 1023.8 1021.9
12 11.09 З 4-6
{6}
19 км н/о +23.1 +14.1 57 +27 +27 душно 1023.7 1021.8 0
13 11.09 З 4-6
{6}
27 км н/о +24.7 +13.6 50 +27 +27 жарко 1023.6 1021.7
14 11.09 З 4-7
{7}
19 км н/о +25.6 +12.8 45 +27 +27 жарко 1023.3 1021.4
15 11.09 З 4-6
{7}
16 км н/о +26.3 +13.4 45 +28 +28 жарко 1022.9 1021.0 0
16 11.09 З 3-6
{6}
15 км н/о +26.0 +13.5 46 +28 +28 жарко 1022.7 1020.8
17 11.09 З 3-5
{6}
16 км н/о +25.7 +13.5 47 +28 +28 жарко 1022.5 1020.6
18 11.09 З 3-4
{5}
55 км н/о +23.9 +13.7 53 +26 +26 жарко 1023.4 1021.5 +14.9 +26.5 0
19 11.09 З 3-4
{4}
60 км н/о +22.2 +13.5 58 +25 +25 комфорт 1024.4 1022.5
20 11.09 З 2-3
{4}
60 км н/о +20.8 +13.2 62 +24 +24 комфорт 1024.9 1023.0
21 11.09 С 1-2
{3}
60 км н/о +19.6 +12.8 65 +22 +22 комфорт 1026.0 1024.1 0
22 11.09 З 2-2
{2}
60 км н/о +17.1 +12.6 75 +18 +18 1026.0 1024.1
23 11.09 СЗ 2-2
{2}
60 км н/о +16.4 +11.1 71 +17 +17 1025.4 1023.5
00 12.09 З 1-1
{3}
60 км н/о +16.8 +11.1 69 +18 +18 1025.8 1023.9 0
01 12.09 З 2-3
{3}
60 км н/о +15.8 +11.0 73 +16 +16 1025.8 1023.9
02 12.09 З 2-3
{4}
60 км н/о +16.3 +10.8 70 +16 +16 1026.3 1024.4
03 12.09 З 2-3
{4}
60 км н/о +15.4 +10.8 74 +15 +15 1026.3 1024.4 0
04 12.09 З 1-2
{2}
60 км н/о +14.1 +10.3 78 +14 +14 1026.6 1024.7
05 12.09 СЗ 1-1
{2}
60 км н/о +13.1 +9.7 80 +14 +14 1027.0 1025.1
06 12.09 ЮЗ 2
{6}
40 км н/о +13.5 +10.3 81 +13 +13 1027.4 1025.5 +12.6 +23.9 0
07 12.09 З 2-3
{3}
60 км н/о +17.2 +10.8 66 +18 +18 1028.4 1026.5
08 12.09 З 2-3
{3}
60 км н/о +20.9 +10.1 50 +23 +23 комфорт 1028.8 1026.9
09 12.09 СЗ 2-4
{4}
50 км н/о +24.3 +8.3 36 +25 +25 комфорт 1029.2 1027.3 0
10 12.09 З 2-4
{4}
40 км н/о +26.0 +8.9 34 +26 +26 жарко 1029.5 1027.6
11 12.09 З 2-4
{4}
35 км н/о +27.2 +9.5 33 +28 +28 жарко 1029.1 1027.2
12 12.09 СЗ 2-4
{6}
35 км н/о +28.4 +8.6 29 +28 +28 жарко 1028.6 1026.7 0
13 12.09 СВ 2-4
{5}
30 км н/о +30.1 +6.7 23 +29 +29 жарко 1027.8 1026.0
14 12.09 ЮВ 3-4
{5}
35 км н/о +28.9 +7.5 26 +28 +28 жарко 1027.6 1025.8
15 12.09 Ю 2-4
{5}
19 км н/о +28.4 +9.6 31 +28 +28 жарко 1027.7 1025.8 0
16 12.09 ЮВ 2-3
{4}
29 км н/о +28.8 +9.5 30 +29 +29 жарко 1027.4 1025.6
17 12.09 Ю 1-2
{3}
40 км н/о +27.3 +10.9 36 +28 +28 жарко 1027.8 1025.9
18 12.09 Ю 2
{3}
60 км н/о +25.2 +11.7 43 +27 +27 жарко 1028.0 1026.1 +13.7 +30.9 0
19 12.09 ЮЗ 1-1
{1}
60 км н/о +21.7 +13.1 58 +24 +24 комфорт 1028.3 1026.4
20 12.09 З 1-1
{1}
60 км н/о +19.7 +12.9 65 +22 +22 комфорт 1028.3 1026.4
21 12.09 З 1-1
{2}
60 км н/о +19.7 +11.5 59 +23 +23 комфорт 1028.3 1026.4 0
22 12.09 З 1-1
{2}
60 км н/о +18.5 +12.0 66 +21 +21 комфорт 1028.3 1026.4
23 12.09 З 1-1
{2}
60 км н/о +17.9 +11.9 68 +20 +20 1028.6 1026.7
00 13.09 ЮЗ 1-1
{2}
55 км н/о +17.1 +12.0 72 +18 +18 1028.9 1027.0 0
01 13.09 З 1-1
{2}
50 км н/о +15.2 +12.0 81 +16 +16 1028.7 1026.8
02 13.09 З 2-2
{2}
45 км н/о +14.8 +12.3 85 +15 +15 1028.2 1026.3
03 13.09 СЗ 1-1
{2}
55 км н/о +14.5 +12.0 85 +16 +16 1028.5 1026.6 0
04 13.09 З 1-1
{2}
55 км н/о +14.5 +11.5 82 +16 +16 1028.7 1026.8
05 13.09 СЗ 1-2
{2}
50 км н/о +13.8 +11.5 86 +14 +14 1028.7 1026.8
06 13.09 З 1
{4}
12 км н/о +15.2 +12.0 81 +16 +16 1028.8 1026.9 +13.6 +25.1 0
07 13.09 С 1-2
{2}
45 км н/о +18.4 +11.9 66 +20 +20 1028.4 1026.5
08 13.09 З 1-2
{2}
30 км н/о +21.7 +13.6 60 +24 +24 комфорт 1028.9 1027.0
09 13.09 СВ 1-2
{3}
55 км н/о +25.5 +10.9 40 +27 +27 жарко 1028.9 1027.0 0
10 13.09 Ю 2-4
{4}
50 км н/о +26.7 +12.4 41 +28 +28 жарко 1029.0 1027.1
11 13.09 ЮВ 2-3
{3}
50 км н/о +28.1 +12.0 37 +29 +29 жарко 1028.8 1026.9
12 13.09 ЮВ 2-3
{4}
40 км н/о +28.3 +10.9 34 +29 +29 жарко 1028.2 1026.3 0
13 13.09 ЮВ 3-5
{5}
19 км н/о +27.2 +12.8 41 +29 +29 жарко 1029.0 1027.1
14 13.09 Ю 2-4
{4}
25 км н/о +26.1 +12.9 44 +28 +28 жарко 1028.5 1026.6
15 13.09 В 2-3
{3}
30 км н/о +26.9 +12.2 40 +28 +28 жарко 1027.5 1025.6 0
16 13.09 ЮВ 1-2
{2}
60 км 8/8
[]
+26.5 +12.2 41 +28 +29 жарко 1027.2 1025.3
17 13.09 Ю 1-1
{2}
50 км н/о +25.1 +13.9 50 +27 +27 жарко 1027.2 1025.3
18 13.09 В 1-2
{2}
50 км н/о +23.2 +14.5 58 +27 +27 душно 1026.4 1024.5 +15.2 +29.0 0
19 13.09 С 1-1
{2}
55 км н/о +21.2 +13.6 62 +24 +24 комфорт 1026.7 1024.8
20 13.09 С 1-2
{2}
45 км н/о +19.6 +14.0 70 +23 +23 комфорт 1026.9 1025.0
21 13.09 СЗ 1-1
{2}
40 км н/о +18.2 +13.9 76 +20 +20 1027.4 1025.5 0
22 13.09 СЗ 1-1
{1}
40 км н/о +17.6 +13.3 76 +19 +19 1027.1 1025.2
23 13.09 В 1-1
{1}
29 км н/о +17.0 +13.5 80 +19 +19 1027.4 1025.5
00 14.09 З 1-1
{1}
26 км н/о +16.1 +13.4 84 +17 +17 1027.3 1025.4 0
01 14.09 З 1-1
{2}
29 км н/о +15.7 +12.8 83 +17 +17 1027.2 1025.3
02 14.09 С 2-2
{2}
55 км н/о +16.4 +12.6 78 +17 +17 1026.5 1024.6
03 14.09 СЗ 1-1
{2}
55 км 10/0
[]
+17.2 +12.7 75 +19 +19 1026.9 1025.0 0
04 14.09 С 1-2
{2}
55 км 10/10
[]
+16.9 +12.4 75 +18 +18 1026.5 1024.6
05 14.09 СВ 2-3
{3}
60 км 10/10
[]
+18.1 +12.1 68 +19 +19 1026.4 1024.5
06 14.09 С 3
{6}
60 км 10/0
[]
+18.6 +11.9 65 +20 +20 1025.7 1023.8 +15.4 +23.1 0
07 14.09 СВ 2-4
{4}
60 км 9/9
[]
+19.9 +11.9 60 +22 +22 комфорт 1026.2 1024.3
08 14.09 С 1-1
{3}
60 км 10/10
[]
+20.6 +12.6 60 +24 +24 комфорт 1026.7 1024.8
09 14.09 С 1-2
{2}
55 км н/о +23.3 +12.9 52 +26 +26 жарко 1026.6 1024.7 0
10 14.09 СВ 1-2
{2}
60 км н/о +26.5 +13.6 45 +29 +29 жарко 1027.1 1025.2
11 14.09 СВ 2-3
{5}
55 км н/о +28.1 +14.3 43 +30 +30 жарко 1026.7 1024.9
12 14.09 Ю 3-4
{4}
45 км н/о +26.4 +15.1 50 +29 +29 жарко 1026.8 1024.9 0
13 14.09 ЮВ 2-3
{4}
35 км н/о +27.7 +12.9 40 +29 +29 жарко 1025.9 1024.0
14 14.09 Ю 2-3
{3}
30 км н/о +28.1 +10.8 34 +29 +29 жарко 1025.3 1023.5
15 14.09 Ю 2-3
{3}
35 км н/о +28.2 +11.7 36 +29 +29 жарко 1024.7 1022.9 0
16 14.09 ЮВ 2-3
{3}
30 км н/о +26.6 +9.9 35 +27 +27 жарко 1025.2 1023.3
17 14.09 Ю 1-2
{3}
45 км н/о +25.2 +12.4 45 +27 +27 жарко 1025.2 1023.3
18 14.09 В 1
{4}
50 км 10/0
[]
+23.9 +12.8 50 +26 +26 жарко 1024.9 1023.0 +18.6 +28.6 0
19 14.09 СЗ 1-1
{2}
45 км н/о +22.6 +12.8 54 +25 +25 комфорт 1025.5 1023.6
20 14.09 СЗ 1-1
{1}
50 км 9/9
[]
+21.3 +13.7 62 +24 +24 комфорт 1025.4 1023.5
21 14.09 СЗ 1
{2}
40 км 10/0
[]
+21.0 +14.2 65 +25 +25 комфорт 1025.4 1023.5 0.0 0
22 14.09 З 1-2
{2}
35 км 10/10
[]
+20.9 +14.8 68 +25 +25 комфорт 1025.6 1023.7
23 14.09 З 1-2
{3}
28 км 10/10
[]
+20.4 +15.0 71 +25 +25 комфорт 1025.2 1023.3
00 15.09 В 1-1
{1}
30 км н/о +19.0 +14.5 75 +22 +22 комфорт 1025.1 1023.2 0
01 15.09 СВ 1-1
{1}
28 км н/о +17.8 +14.1 79 +19 +19 1024.8 1022.9
02 15.09 СВ 1-1
{2}
30 км н/о +17.6 +14.1 80 +19 +19 1024.2 1022.3
03 15.09 ЮЗ 1-1
{1}
26 км н/о +17.4 +13.9 80 +19 +19 1024.8 1022.9 0
04 15.09 С 1-1
{1}
26 км н/о +16.1 +13.4 84 +17 +17 1024.1 1022.2
05 15.09 СВ 1-2
{2}
30 км н/о +16.6 +13.7 83 +17 +17 1024.1 1022.2
06 15.09 СВ 1
{6}
40 км 9/0
[]
+18.1 +14.0 77 +19 +19 1023.8 1021.9 +15.9 +23.9 0
07 15.09 СВ 1-2
{2}
45 км 9/9
[]
+19.9 +14.0 69 +23 +23 комфорт 1024.2 1022.3
08 15.09 С 1-2
{2}
45 км 9/9
[]
+21.9 +13.8 60 +25 +25 комфорт 1024.5 1022.6
09 15.09 В 1-2
{3}
55 км н/о +25.1 +14.2 51 +28 +28 жарко 1024.8 1022.9 0
10 15.09 В 2-3
{3}
35 км 10/10
[]
+26.1 +12.9 44 +28 +28 жарко 1024.4 1022.5
11 15.09 ЮВ 2-3
{4}
19 км н/о +27.7 +12.9 40 +29 +29 жарко 1024.1 1022.3
12 15.09 ЮВ 2-4
{4}
30 км н/о +28.0 +14.3 43 +30 +30 жарко 1023.7 1021.9 0
13 15.09 ЮВ 3-4
{4}
26 км н/о +27.2 +13.5 43 +29 +29 жарко 1023.3 1021.5
14 15.09 ЮВ 2-3
{4}
23 км н/о +27.1 +12.7 41 +29 +29 жарко 1022.8 1021.0
15 15.09 ЮВ 2-3
{3}
23 км н/о +26.8 +12.4 41 +28 +28 жарко 1022.5 1020.6 0
16 15.09 ЮВ 2-3
{3}
24 км н/о +26.5 +12.2 41 +28 +28 жарко 1022.1 1020.2
17 15.09 ЮВ 1-2
{3}
50 км н/о +25.7 +13.5 47 +28 +28 жарко 1021.6 1019.7
18 15.09 З 1-1
{2}
55 км н/о +22.9 +13.7 56 +26 +26 жарко 1021.5 1019.6 +18.2 +28.6 0
19 15.09 СЗ 1-1
{1}
45 км н/о +20.3 +13.5 65 +24 +24 комфорт 1021.6 1019.7
20 15.09 штиль 0-1
{1}
50 км н/о +19.8 +13.7 68 +21 +21 комфорт 1021.3 1019.4
21 15.09 З 1-1
{1}
50 км н/о +18.7 +13.5 72 +21 +21 комфорт 1021.5 1019.6 0
22 15.09 штиль 0-1
{1}
45 км н/о +18.0 +13.7 76 +18 +18 1021.8 1019.9
23 15.09 СЗ 1-1
{1}
40 км н/о +17.1 +13.2 78 +19 +19 1021.5 1019.6
00 16.09 З 1-1
{1}
40 км н/о +17.0 +12.9 77 +19 +19 1021.4 1019.5 0
01 16.09 штиль 0-1
{1}
45 км н/о +17.0 +12.7 76 +17 +17 1021.2 1019.3
02 16.09 СЗ 1-1
{1}
45 км н/о +16.2 +12.6 79 +18 +18 1020.8 1018.9
03 16.09 СЗ 1-2
{2}
50 км н/о +16.2 +12.6 79 +17 +17 1020.7 1018.8 0
04 16.09 С 1-1
{3}
45 км н/о +15.9 +12.3 79 +17 +17 1020.2 1018.3
05 16.09 С 1-1
{1}
40 км н/о +15.2 +12.0 81 +16 +16 1020.2 1018.3
06 16.09 С 1
{3}
40 км н/о +15.7 +12.8 83 +16 +16 1020.2 1018.3 +15.0 +22.7 0
07 16.09 З 1-1
{3}
50 км н/о +18.9 +13.3 70 +21 +21 комфорт 1020.3 1018.4
08 16.09 С 1-2
{2}
40 км н/о +22.5 +13.8 58 +26 +26 жарко 1020.4 1018.5
09 16.09 В 1-2
{2}
50 км н/о +26.2 +14.3 48 +29 +29 жарко 1020.3 1018.5 0
10 16.09 Ю 2-3
{3}
55 км н/о +26.9 +14.6 47 +29 +29 жарко 1020.1 1018.3
11 16.09 Ю 2-3
{3}
45 км н/о +26.3 +14.4 48 +29 +29 жарко 1019.7 1017.9
12 16.09 Ю 2-3
{3}
35 км н/о +27.1 +15.1 48 +30 +30 душно 1019.0 1017.2 0
13 16.09 Ю 2-3
{4}
30 км н/о +26.5 +14.6 48 +29 +29 жарко 1018.7 1016.9
14 16.09 Ю 2-3
{4}
29 км н/о +26.5 +14.6 48 +29 +29 жарко 1018.2 1016.4
15 16.09 Ю 2-3
{3}
26 км н/о +25.8 +15.5 53 +29 +29 душно 1017.7 1015.9 0
16 16.09 Ю 2-3
{3}
27 км н/о +25.2 +16.1 57 +29 +29 душно 1017.2 1015.4
17 16.09 Ю 1-2
{3}
35 км н/о +23.5 +17.0 67 +27 +27 душно 1017.5 1015.6
18 16.09 ЮЗ 1-1
{2}
35 км н/о +22.4 +17.5 74 +27 +27 душно 1017.7 1015.8 +15.7 +27.5 0
19 16.09 ЮЗ 1-2
{2}
26 км н/о +20.7 +16.9 79 +25 +25 комфорт 1017.9 1016.0
20 16.09 С 1-1
{2}
28 км н/о +19.6 +16.6 83 +23 +23 комфорт 1018.1 1016.2
21 16.09 Ю 1-1
{1}
22 км н/о +18.5 +15.7 84 +21 +21 комфорт 1017.9 1016.0 0
22 16.09 З 1-1
{1}
19 км н/о +17.4 +15.0 86 +19 +19 1017.9 1016.0
23 16.09 СЗ 2-2
{2}
18 км н/о +17.2 +15.4 89 +18 +18 1017.6 1015.7
00 17.09 СЗ 1-2
{2}
27 км н/о +17.0 +14.5 85 +18 +18 1017.4 1015.5 0
01 17.09 З 1-1
{2}
27 км н/о +16.8 +14.1 84 +18 +18 1016.9 1015.0

 

Местоположение метеостанции Безье (Франция): широта 43.32 долгота 3.35 высота над уровнем моря 16 м.

В архиве по умолчанию представлена погода в Безье за последнюю неделю. Архивные данные за месяц целиком и за предыдущие месяцы, начиная с января 2011 года, Вы можете получить, выбрав интересующий диапазон дат из раскрывающегося списка и нажав кнопку "Ввод!".


*Определитесь, кто Вы:
робот инопланетянин человек

Внимание! Время в таблицах - всемирное. Для получения местного времени необходимо прибавить поправку, которая равна 1 ч.

Смотрите также архив погоды в соседних городах и на ближайших метеорологических станциях:

Погода в Лёкате (Франция) (50 км)
Погода в Монпелье (Франция) (58 км)
Погода в Перпиньяне (Франция) (76 км)
Погода в Каркассоне (Франция) (84 км)
Погода на Мысе Беар (Франция) (91 км)
Погода в Мон Эгуале (Франция) (91 км)
Погода в Мийо (Франция) (93 км)
Погода в Ниме (Франция) (99 км)
Погода в Ним аэропорту (Франция) (104 км)
Погода в Сете (Франция) (106 км)

Пояснения к столбцам:

Ветер - указаны скорость ветра в м/с - средняя за 10 мин, порывы в срок и между сроками (в фигурных скобках) и направление, откуда дует ветер: С - северный, СВ - северо-восточный, В - восточный, ЮВ - юго-восточный, Ю - южный, ЮЗ - юго-западный, З - западный, СЗ - северо-западный.
Видимость - горизонтальная дальность видимости в метрах или километрах. При видимости от 1 до 10 км при отсутствии осадков обычно наблюдается дымка, при ухудшении видимости до 1 км и менее - туман. В сухую погоду видимость может ухудшаться дымом, пылью или мглою.
Явления - указаны атмосферные явления, наблюдавшиеся в срок или в последний час перед сроком; фигурными скобками обозначены явления, наблюдавшиеся между сроками (за 1-3 часа до срока); квадратными скобками обозначены град или гололедные отложения с указанием их диаметра в мм.
Облачность - указаны через наклонную черту общая и нижняя облачность в баллах и высота нижней границы облаков в метрах; квадратными скобками обозначены формы облаков: Ci - перистые, Cs - перисто-слоистые, Cc - перисто-кучевые, Ac - высококучевые, As - высокослоистые, Sc - слоисто-кучевые, Ns - слоисто-дождевые, Cu - кучевые, Cb - кучево-дождевые. Подробнее классификацию облаков см. в Атласе облаков (PDF).
T - Температура воздуха - температура, измеренная на высоте 2 м над землей.
Td - Температура точки росы - температура, при понижении до которой содержащийся в воздухе водяной пар достигнет насыщения.
f - Относительная влажность воздуха - влажноcть воздуха, измеренная на высоте 2 м над землей.
Te - Эффективная температура - температура, которую ощущает одетый по сезону человек в тени. Характеристика душности погоды. При расчете учитывается влияние влажности воздуха и скорости ветра на теплоощущения человека.
Tes - Эффективная температура на солнце - температура, которую ощущает человек, с поправкой на солнечный нагрев. Характеристика знойности погоды. Зависит от высоты солнца над горизонтом, облачности и скорости ветра. Ночью, в пасмурную погоду, а также при ветре 12 м/с и более поправка равна нулю.
P - Атмосферное давление - приведенное к уровню моря атмосферное давление.
Po - Атмосферное давление - измеренное на уровне метеостанции атмосферное давление.
Tmin - Минимальная температура - минимум температуры воздуха на высоте 2 м над землей.
Tmax - Максимальная температура - максимум температуры воздуха на высоте 2 м над землей.
R - Количество осадков - Количество выпавших осадков за период времени, мм. При наведении курсора мыши на число - период времени, за который выпало указанное количество осадков.
R24 - Количество осадков - Количество выпавших осадков за 24 часа, мм.
S - Снежный покров - Высота снежного покрова, см. При наведении курсора мыши на число - состояние снежного покрова и степень покрытия местности в баллах.